GALILEO-PFM 1 37846U 11060A 25185.00346216 -.00000092 00000-0 00000-0 0 9991 2 37846 57.0921 351.2015 0002746 55.7812 304.2492 1.70475965 85188 GALILEO-FM2 1 37847U 11060B 25184.91689619 -.00000092 00000-0 00000-0 0 9998 2 37847 57.0928 351.2042 0002572 10.9514 341.3106 1.70476100 85181 GALILEO-FM3 1 38857U 12055A 25185.04321155 -.00000018 00000-0 00000-0 0 9996 2 38857 55.5975 111.1091 0004350 295.5736 64.3650 1.70473602 79079 GALILEO 5 (261) 1 40128U 14050A 25186.30934659 -.00000086 00000-0 00000+0 0 9990 2 40128 49.2525 287.5908 1634169 166.0805 199.0727 1.85519910 73823 GALILEO 6 (262) 1 40129U 14050B 25183.33227246 -.00000100 00000-0 00000-0 0 9996 2 40129 49.2715 286.7933 1634061 166.7334 198.1829 1.85520451 73992 GALILEO 7 (263) 1 40544U 15017A 25183.60894238 -.00000095 00000-0 00000-0 0 9995 2 40544 56.8867 351.1215 0002137 256.8129 103.1659 1.70476245 63249 GALILEO 8 (264) 1 40545U 15017B 25185.62369392 -.00000090 00000-0 00000+0 0 9992 2 40545 56.8924 351.0840 0002345 227.5959 132.3888 1.70475903 63949 GALILEO 9 (205) 1 40889U 15045A 25184.21862388 .00000040 00000-0 00000-0 0 9996 2 40889 55.0606 231.2439 0002755 14.5477 345.5379 1.70473942 61060 GALILEO 10 (206) 1 40890U 15045B 25185.02587299 .00000047 00000-0 00000-0 0 9990 2 40890 55.0595 231.2167 0002074 300.3111 59.7488 1.70473844 61103 GALILEO 12 (269) 1 41174U 15079A 25183.43469631 -.00000015 00000-0 00000-0 0 9991 2 41174 55.6168 110.8661 0004881 335.1615 24.8007 1.70473887 58816 GALILEO 11 (268) 1 41175U 15079B 25185.41446963 -.00000019 00000-0 00000-0 0 9999 2 41175 55.6160 110.8090 0004300 336.2628 23.7006 1.70473851 59265 GALILEO 14 (26B) 1 41549U 16030A 25181.43207387 .00000023 00000-0 00000+0 0 9998 2 41549 55.2099 231.3684 0002748 313.2420 46.8126 1.70474050 56655 GALILEO 13 (26A) 1 41550U 16030B 25186.38253591 .00000058 00000-0 00000+0 0 9995 2 41550 55.2078 231.2302 0004373 236.0740 123.9711 1.70474141 56730 GALILEO 15 (267) 1 41859U 16069A 25184.90126772 -.00000019 00000-0 00000-0 0 9994 2 41859 55.2854 110.7344 0004618 323.4940 36.4585 1.70473719 53460 GALILEO 16 (26C) 1 41860U 16069B 25185.34170865 -.00000020 00000-0 00000-0 0 9999 2 41860 55.2829 110.7178 0003826 359.5627 0.4203 1.70473730 53721 GALILEO 17 (26D) 1 41861U 16069C 25185.12300350 -.00000019 00000-0 00000-0 0 9998 2 41861 55.2853 110.7312 0004588 303.4866 56.4533 1.70474419 53584 GALILEO 18 (26E) 1 41862U 16069D 25183.50897644 -.00000016 00000-0 00000+0 0 9992 2 41862 55.2830 110.7690 0003635 310.3725 49.5814 1.70473812 53684